Wind_Speed
3 3 3 4 5 6 7 8 9 9 10 10 11 11 11 11 11 12 12 12 13 13 13 13 13 13 13 13 13 13 12 12 12 12 12 12 12 12 13 13 13 14 14 14
5 6 6 7 8 8 9 10 10 10 10 11 12 13 12 12 13 13 13 13 14 14 15 15 15 14 14 14 14 14 13 13 13 13 13 12 12 12 12 12 12 13 13 13
7 8 9 9 9 10 11 11 12 12 12 12 13 14 14 14 14 14 14 14 15 16 16 16 16 16 16 15 15 15 15 15 14 14 14 13 13 13 12 12 12 12 13 12
10 10 11 10 11 12 13 14 14 14 14 14 14 15 15 15 15 15 15 15 16 16 17 17 17 17 17 17 17 17 16 16 16 15 15 15 14 14 13 13 12 12 12 12
12 12 11 12 13 14 15 16 16 16 16 16 16 16 16 17 17 17 17 17 17 17 17 18 18 19 19 19 18 18 18 17 17 17 17 16 15 15 14 14 13 13 13 12
15 16 15 15 15 16 17 17 17 18 18 19 19 19 19 19 19 19 19 19 19 19 19 19 19 20 20 20 20 20 20 19 19 19 19 18 17 16 16 15 15 14 14 13
18 18 18 18 18 19 19 20 20 20 21 21 21 22 22 21 21 21 21 21 22 22 22 22 22 22 22 22 22 22 22 22 21 21 21 20 19 18 18 17 16 16 15 15
21 22 22 22 22 22 23 23 23 23 24 24 24 24 24 24 24 24 24 24 25 25 24 24 25 24 24 24 24 25 25 24 24 23 23 22 21 21 20 19 19 18 17 16
24 24 25 25 26 26 27 27 27 27 27 27 27 27 27 27 27 27 27 27 28 28 27 27 27 27 26 26 26 27 26 26 26 26 25 25 24 23 22 22 21 20 20 19
27 27 28 29 29 30 31 31 31 31 31 31 31 31 31 31 31 31 31 31 31 31 30 30 29 29 29 29 29 29 29 28 28 28 27 27 26 25 25 24 23 23 22 21
30 31 31 32 33 33 34 35 35 35 36 36 36 36 35 35 35 35 35 35 35 34 33 33 32 32 32 31 31 31 31 31 31 30 30 29 29 28 27 27 26 25 24 24
34 34 35 35 36 37 38 38 39 39 39 39 40 40 39 39 38 39 39 38 38 37 37 36 36 35 35 34 34 34 34 34 33 33 32 32 31 30 30 29 28 27 27 26
38 39 40 40 40 41 41 42 43 44 44 43 43 43 43 43 42 42 42 42 41 41 40 39 39 38 38 37 36 36 36 36 35 35 34 34 33 32 32 31 30 30 29 29
42 43 44 44 44 45 45 45 46 47 47 48 47 47 46 46 46 46 45 45 45 44 43 42 42 41 41 40 39 38 38 38 38 37 37 36 35 35 34 33 33 32 32 31
45 46 47 47 48 48 48 48 49 49 49 49 49 49 48 48 48 48 48 48 48 47 45 44 44 43 43 42 42 41 41 40 40 40 39 39 38 37 36 36 35 34 34 34
47 47 48 48 49 49 49 49 49 50 50 50 50 50 50 49 49 49 49 49 49 48 47 46 45 45 45 44 43 42 42 42 42 42 42 41 40 39 38 38 37 36 36 35
48 48 48 49 49 49 49 49 49 49 49 50 50 50 50 50 50 49 49 49 48 48 48 47 46 46 46 45 45 44 43 43 43 43 43 42 42 41 40 39 38 38 37 37
49 49 49 50 50 50 50 50 50 49 49 50 50 50 50 50 49 48 48 48 48 47 47 47 47 47 46 46 45 45 45 44 44 44 44 44 43 42 42 41 40 39 39 38
49 50 50 51 51 51 51 51 50 50 50 50 49 49 49 49 48 47 47 47 47 46 46 46 46 46 46 45 45 45 45 45 45 45 45 45 45 44 43 42 41 41 40 40
51 51 51 51 52 51 51 51 51 51 51 50 50 49 48 48 47 46 45 45 45 45 45 45 45 45 45 44 45 45 45 45 45 45 45 45 45 44 43 43 43 43 42 41
51 51 52 52 52 52 51 51 51 50 49 49 48 47 46 46 46 45 44 44 44 44 44 43 44 44 44 43 43 43 43 44 44 45 45 45 45 45 44 43 43 43 43 42
52 53 53 53 53 52 51 51 50 49 49 48 47 46 45 44 45 44 44 43 43 43 43 43 43 42 42 42 42 42 42 43 44 44 45 45 45 44 44 44 44 44 44 44
53 52 52 51 51 50 50 49 49 48 47 47 46 45 44 43 43 43 43 43 43 43 43 42 42 42 42 42 42 42 42 42 43 44 44 44 44 44 44 44 43 43 43 43
50 50 49 49 49 49 47 46 45 45 45 44 43 42 42 42 41 42 42 42 43 43 43 43 42 42 42 42 42 41 41 41 41 42 42 42 42 43 43 43 42 42 42 42
47 47 47 47 47 46 45 45 44 44 43 42 41 41 41 40 40 40 41 41 41 41 42 42 42 41 42 42 42 41 41 40 40 41 41 41 41 40 40 41 41 42 41 41
46 46 45 45 45 45 44 44 43 43 42 41 40 40 39 39 39 39 39 39 39 39 40 41 40 41 41 41 41 40 39 39 39 39 40 40 39 38 38 39 40 40 40 41
46 46 45 45 44 44 43 42 41 41 40 39 39 39 38 38 37 37 37 37 37 37 37 38 38 39 39 39 39 38 38 37 37 37 37 37 38 38 38 38 39 39 40 40
Wind_Direction
281 277 280 277 273 273 278 280 281 283 283 281 285 289 291 291 291 288 283 279 277 276 277 279 279 277 276 278 282 287 292 298 305 312 320 326 331 335 340 345 350 355 359 1
288 288 290 287 278 273 275 279 282 282 284 282 285 287 289 290 289 288 285 282 279 277 278 277 277 276 275 276 278 281 286 290 296 303 310 315 320 325 330 335 340 346 351 354
289 289 289 287 282 276 277 278 281 284 285 282 284 286 289 290 290 288 287 284 279 277 277 277 275 274 274 274 275 277 280 284 289 294 300 305 310 315 320 325 329 334 339 344
285 285 285 288 282 282 282 282 284 285 286 282 282 284 286 288 287 285 284 283 281 279 278 277 275 273 273 273 274 275 277 279 282 287 291 296 301 305 309 314 319 324 328 333
285 285 286 283 283 282 282 283 285 284 284 283 281 281 282 283 282 282 281 281 280 280 280 278 276 274 273 273 273 274 275 276 277 280 284 289 293 297 300 304 308 313 318 322
287 287 288 286 283 282 282 283 284 283 282 281 281 280 280 279 278 278 277 277 278 279 279 278 276 274 273 273 273 273 273 274 274 276 279 282 286 289 292 296 299 302 306 310
287 287 287 288 286 283 281 283 281 281 281 281 281 282 280 279 278 277 276 276 276 277 278 278 276 275 274 273 272 272 272 272 272 273 275 277 280 283 286 288 291 293 296 299
286 286 286 287 287 284 282 282 282 281 281 281 280 281 280 279 279 277 276 276 276 276 277 277 277 276 274 273 271 271 271 271 271 272 273 275 277 279 281 283 284 286 288 291
284 285 285 285 286 285 284 283 284 283 282 281 280 280 279 278 279 278 277 276 275 275 275 275 276 276 274 272 270 270 269 269 269 270 271 272 274 275 277 279 280 281 282 284
284 284 284 284 285 285 285 284 283 283 282 280 280 278 278 277 276 276 275 275 275 273 273 273 273 274 273 272 270 269 268 267 267 268 269 271 272 273 273 275 277 277 278 280
282 284 283 283 285 285 285 284 283 281 281 280 280 279 278 277 275 274 274 273 273 272 271 271 270 270 271 271 270 269 268 267 266 266 267 269 270 271 272 272 274 274 275 276
281 282 282 282 281 282 282 282 281 280 280 279 279 279 277 276 275 274 273 273 271 271 269 269 268 268 268 268 268 267 267 266 266 265 265 266 267 268 269 270 270 272 272 273
282 281 281 282 281 281 281 280 280 280 279 278 277 276 276 275 274 273 273 272 270 269 268 267 267 266 267 266 266 265 265 264 264 264 264 264 265 266 266 267 268 269 269 271
282 282 282 282 282 281 281 280 280 279 279 278 278 277 276 275 274 273 272 271 270 268 268 267 266 265 265 265 264 263 263 262 262 262 262 262 263 264 264 265 265 266 268 269
282 282 282 282 282 282 282 281 281 280 279 279 278 277 276 275 274 273 272 271 269 267 266 265 264 264 263 263 264 263 262 261 261 261 261 261 262 262 263 263 264 265 266 267
282 282 281 281 282 282 282 282 282 281 280 279 278 277 276 275 274 273 273 271 269 267 265 264 263 262 262 262 262 262 261 260 260 259 259 260 261 261 261 262 263 264 265 266
281 281 281 280 281 282 283 283 283 282 280 280 279 277 276 275 275 274 272 271 269 267 264 263 262 261 260 260 261 261 261 260 259 258 258 258 259 260 260 261 261 262 263 264
281 281 281 281 282 283 283 284 284 283 282 280 279 278 276 276 275 273 272 270 268 266 264 262 260 260 260 260 260 260 260 259 258 258 258 257 257 258 258 259 260 261 262 263
282 282 282 283 283 284 284 285 284 283 282 281 280 278 276 275 274 272 271 269 266 264 263 262 260 259 259 259 259 259 259 258 258 257 257 257 257 257 257 258 259 259 260 262
282 283 283 283 284 285 285 285 284 283 283 283 281 279 277 274 273 271 269 267 265 263 261 261 260 259 258 258 258 258 257 257 257 256 256 256 256 257 257 258 258 259 260 261
282 282 283 284 284 284 284 284 284 283 283 283 282 280 278 276 274 272 270 267 265 262 260 260 259 259 258 258 257 257 256 256 255 255 255 255 255 256 257 257 258 259 260 260
282 282 283 283 284 283 283 283 283 283 282 282 281 281 278 276 274 272 270 268 265 263 261 259 259 258 258 257 257 256 255 255 255 255 255 255 256 256 257 258 258 258 259 259
282 282 283 283 283 283 283 283 282 283 282 282 281 280 278 276 274 272 270 267 265 263 260 259 258 257 258 258 257 256 255 255 255 255 256 256 256 256 256 257 258 258 258 259
282 283 282 282 282 282 282 282 282 283 283 282 280 279 278 276 274 273 271 268 265 263 261 260 259 258 258 258 257 256 256 255 255 255 255 256 256 257 256 257 256 256 257 259
281 281 281 281 281 282 281 281 282 282 282 280 279 279 278 277 275 272 270 268 266 264 263 261 260 258 257 258 257 257 256 256 255 255 255 256 257 256 255 255 256 256 257 259
280 280 280 280 281 282 281 281 281 281 280 279 278 278 278 278 276 273 270 267 265 264 263 261 259 258 257 256 256 256 255 254 253 254 254 254 254 255 255 256 256 256 257 258
280 279 279 280 281 282 281 281 280 280 280 279 279 278 278 279 278 274 271 269 266 264 262 260 259 258 257 256 256 255 254 254 254 253 253 253 253 254 255 256 257 256 256 256
Height
5823 5823 5823 5823 5823 5823 5822 5822 5822 5822 5821 5821 5820 5820 5819 5819 5818 5818 5817 5817 5816 5816 5816 5815 5815 5814 5813 5813 5812 5811 5810 5808 5807 5805 5803 5801 5798 5796 5794 5791 5788 5786 5783 5780
5822 5822 5821 5821 5821 5820 5820 5819 5819 5819 5819 5818 5817 5817 5816 5815 5814 5814 5813 5813 5812 5812 5812 5811 5811 5810 5810 5809 5808 5807 5806 5805 5804 5802 5800 5799 5796 5794 5792 5790 5787 5785 5782 5780
5820 5819 5819 5819 5818 5818 5817 5816 5816 5815 5816 5814 5814 5813 5812 5812 5811 5810 5809 5809 5808 5808 5808 5807 5806 5806 5805 5805 5804 5803 5802 5801 5800 5799 5797 5796 5794 5792 5790 5788 5786 5783 5781 5779
5817 5817 5816 5818 5815 5814 5813 5812 5812 5811 5811 5810 5809 5809 5808 5808 5807 5806 5805 5805 5804 5803 5803 5802 5802 5801 5800 5800 5799 5799 5798 5797 5796 5795 5794 5792 5791 5789 5787 5785 5784 5782 5779 5777
5813 5812 5812 5812 5811 5810 5809 5808 5807 5807 5806 5806 5805 5804 5804 5803 5802 5802 5801 5800 5799 5799 5798 5797 5797 5796 5795 5795 5794 5794 5793 5792 5791 5791 5790 5788 5787 5786 5784 5782 5781 5779 5777 5775
5808 5807 5807 5808 5807 5805 5805 5803 5803 5802 5801 5800 5800 5799 5799 5798 5797 5796 5795 5795 5794 5793 5792 5792 5791 5790 5790 5789 5789 5788 5787 5787 5786 5785 5785 5784 5782 5781 5780 5778 5777 5776 5774 5772
5803 5801 5801 5801 5800 5800 5800 5799 5797 5795 5795 5794 5794 5793 5793 5792 5791 5790 5789 5789 5788 5787 5786 5785 5785 5784 5784 5783 5783 5782 5781 5780 5780 5779 5779 5778 5777 5776 5775 5774 5773 5771 5770 5769
5797 5796 5797 5794 5793 5792 5791 5790 5789 5788 5788 5787 5787 5786 5785 5784 5784 5783 5783 5782 5781 5780 5780 5779 5778 5777 5777 5776 5776 5775 5774 5774 5773 5773 5772 5772 5771 5770 5769 5768 5767 5766 5765 5764
5790 5791 5788 5786 5785 5783 5782 5782 5781 5780 5780 5779 5778 5777 5777 5776 5775 5775 5774 5774 5773 5772 5772 5771 5770 5769 5769 5768 5767 5767 5767 5766 5766 5765 5765 5765 5764 5763 5763 5762 5761 5760 5760 5759
5781 5781 5779 5777 5776 5775 5773 5772 5771 5770 5770 5769 5769 5768 5767 5767 5766 5765 5765 5764 5763 5763 5763 5762 5761 5760 5760 5759 5759 5758 5758 5758 5758 5757 5757 5757 5756 5756 5755 5755 5754 5754 5753 5752
5772 5772 5770 5768 5766 5765 5763 5762 5761 5760 5759 5758 5758 5757 5756 5756 5755 5755 5754 5753 5753 5752 5752 5752 5751 5751 5750 5750 5749 5749 5748 5749 5748 5748 5748 5748 5748 5748 5747 5747 5747 5746 5746 5745
5763 5762 5759 5759 5757 5755 5753 5751 5750 5749 5748 5747 5745 5744 5744 5743 5742 5742 5742 5741 5741 5740 5740 5740 5740 5739 5739 5739 5738 5738 5738 5738 5738 5738 5738 5738 5738 5739 5738 5738 5738 5738 5738 5737
5751 5750 5748 5747 5745 5743 5741 5739 5738 5736 5734 5733 5732 5730 5729 5729 5728 5728 5728 5727 5727 5727 5727 5727 5727 5727 5727 5727 5726 5726 5726 5727 5727 5727 5728 5728 5728 5728 5729 5729 5729 5729 5729 5728
5738 5736 5734 5733 5731 5729 5727 5725 5723 5722 5720 5718 5717 5715 5714 5713 5713 5713 5713 5712 5712 5712 5712 5712 5713 5713 5713 5713 5713 5713 5714 5714 5715 5715 5716 5716 5717 5717 5718 5718 5719 5719 5719 5719
5724 5722 5720 5718 5716 5713 5711 5709 5707 5706 5704 5702 5701 5699 5698 5697 5697 5696 5696 5696 5695 5696 5697 5697 5697 5698 5698 5698 5698 5699 5700 5701 5701 5702 5703 5704 5705 5706 5706 5707 5708 5708 5708 5708
5709 5707 5704 5702 5700 5698 5695 5693 5691 5689 5687 5686 5684 5683 5681 5680 5679 5679 5679 5678 5678 5679 5680 5681 5682 5682 5683 5683 5684 5684 5685 5686 5687 5688 5689 5690 5692 5693 5694 5695 5696 5696 5697 5697
5694 5692 5689 5687 5684 5682 5680 5678 5675 5673 5671 5669 5667 5666 5664 5663 5662 5662 5661 5661 5660 5661 5663 5664 5665 5666 5667 5667 5668 5669 5671 5672 5672 5674 5675 5677 5678 5679 5681 5682 5683 5684 5685 5685
5677 5675 5672 5670 5668 5666 5663 5661 5658 5656 5654 5652 5650 5648 5647 5646 5645 5644 5644 5643 5643 5644 5645 5646 5648 5649 5650 5651 5652 5653 5655 5656 5657 5659 5660 5662 5663 5665 5667 5668 5670 5671 5672 5673
5660 5658 5656 5654 5651 5649 5647 5644 5642 5639 5637 5634 5632 5631 5629 5628 5627 5627 5627 5627 5627 5628 5629 5629 5630 5632 5634 5635 5636 5637 5639 5640 5642 5643 5645 5647 5648 5650 5652 5654 5656 5657 5658 5660
5644 5642 5639 5637 5635 5632 5630 5627 5625 5623 5620 5618 5615 5614 5612 5611 5610 5610 5610 5610 5611 5611 5612 5613 5614 5616 5617 5618 5620 5621 5623 5624 5626 5628 5630 5632 5634 5636 5638 5640 5641 5643 5644 5646
5628 5625 5623 5620 5618 5615 5613 5610 5608 5606 5603 5601 5598 5597 5596 5595 5594 5593 5593 5594 5595 5595 5596 5597 5599 5600 5601 5602 5604 5605 5607 5609 5610 5612 5614 5617 5619 5621 5623 5625 5627 5628 5630 5631
5611 5609 5606 5603 5601 5599 5596 5593 5591 5589 5587 5584 5582 5581 5579 5579 5578 5578 5578 5578 5579 5580 5580 5582 5583 5584 5586 5587 5589 5590 5592 5594 5595 5597 5599 5601 5604 5606 5608 5610 5612 5614 5615 5617
5594 5591 5589 5586 5584 5582 5580 5577 5574 5572 5570 5568 5567 5565 5564 5563 5562 5562 5563 5563 5563 5564 5565 5566 5568 5569 5570 5572 5574 5575 5577 5578 5580 5582 5584 5586 5589 5591 5593 5595 5596 5598 5600 5602
5577 5575 5572 5570 5567 5565 5563 5561 5559 5557 5555 5553 5551 5550 5548 5548 5547 5547 5547 5547 5547 5548 5550 5551 5553 5554 5555 5557 5559 5560 5562 5564 5566 5568 5570 5572 5574 5576 5578 5580 5581 5583 5585 5587
5561 5559 5557 5554 5552 5550 5548 5546 5544 5542 5540 5539 5537 5536 5534 5533 5532 5532 5531 5532 5533 5533 5534 5536 5537 5539 5540 5542 5544 5546 5548 5549 5551 5553 5555 5557 5559 5561 5563 5565 5567 5569 5571 5573
5546 5544 5541 5539 5537 5535 5534 5532 5530 5529 5526 5525 5524 5522 5521 5519 5518 5517 5517 5518 5518 5519 5520 5521 5523 5524 5526 5528 5530 5532 5534 5535 5537 5539 5541 5543 5545 5547 5549 5551 5553 5555 5557 5559
5531 5529 5527 5525 5523 5521 5519 5518 5516 5515 5513 5511 5510 5509 5508 5506 5505 5504 5504 5504 5504 5505 5506 5507 5509 5510 5512 5514 5516 5518 5520 5522 5524 5526 5528 5530 5532 5534 5536 5538 5540 5541 5543 5545